Glens Falls, NY

3:53 AM EST on December 11, 2019 (GMT -0500)
Bennett Memorial

Weather History for KGFL - October, 2019

Change the Weather History Date:

Sunday, October 6, 2019

  Actual Average Record
Temperature  
Mean Temperature 45 °F 50 °F  
Max Temperature 61 °F 62 °F 85 °F (1910)
Min Temperature 28 °F 38 °F 21 °F (1984)
Degree Days  
Heating Degree Days 20 15  
Month to date heating degree days 90 84  
Since 1 July heating degree days 312 369  
Cooling Degree Days 0 0  
Month to date cooling degree days 0 0  
Year to date cooling degree days 416 351  
Moisture  
Dew Point 44 °F    
Average Humidity 89    
Maximum Humidity 100    
Minimum Humidity 77    
Precipitation  
Precipitation T in 0.12 in 2.12 in (1932)
Month to date precipitation 0.39 0.71  
Year to date precipitation 31.24 29.90  
Sea Level Pressure  
Sea Level Pressure 30.24 in    
Wind  
Wind Speed 4 mph (SSW)    
Max Wind Speed 16 mph    
Max Gust Speed 21 mph    
Visibility 8 miles    
Events      
T = Trace of Precipitation, MM = Missing Value Source: NWS Daily Summary

Daily Weather History Graph

Daily Weather History Graph

Search for Another Location

Airport or City:

Astronomy

Oct. 06, 2019 Rise Set
Actual Time 6:57 AM EDT 6:27 PM EDT
Civil Twilight 6:28 AM EDT 6:55 PM EDT
Nautical Twilight 5:55 AM EDT 7:28 PM EDT
Astronomical Twilight 5:22 AM EDT 8:01 PM EDT
Moon 3:16 PM EDT (10/6) No Moon Set
Length of Visible Light 12h 26m
Length of Day
11h 29m
First Quarter, 59% of the Moon is Illuminated
Oct 6
First Quarter
Oct 13
Full
Oct 21
Last Quarter
Oct 27
New
Nov 4
First Quarter

Hourly Weather History & Observations

Time (EDT) Temp. Windchill Dew Point Humidity Pressure Visibility Wind Dir Wind Speed Gust Speed Precip Events Conditions
12:06 AM 33.1 °F - 30.9 °F 92% 30.34 in 3.0 mi Calm Calm - N/A   Clear
12:53 AM 33.1 °F - 30.9 °F 92% 30.36 in 10.0 mi Calm Calm - N/A   Clear
1:11 AM 30.9 °F - 30.0 °F 96% 30.34 in 1.8 mi Calm Calm - N/A   Clear
1:30 AM 30.9 °F 27.5 °F 30.0 °F 96% 30.34 in 3.0 mi WNW 3.5 mph - N/A   Clear
1:53 AM 32.0 °F - 30.0 °F 92% 30.36 in 2.5 mi Calm Calm - N/A   Clear
2:05 AM 30.9 °F - 30.0 °F 96% 30.34 in 0.8 mi Calm Calm - N/A   Clear
2:18 AM 30.9 °F - 28.9 °F 92% 30.34 in 2.0 mi Calm Calm - N/A   Clear
2:26 AM 30.9 °F - 28.9 °F 92% 30.34 in 10.0 mi Calm Calm - N/A   Clear
2:53 AM 30.0 °F - 28.9 °F 96% 30.35 in 10.0 mi Calm Calm - N/A   Clear
3:50 AM 28.4 °F - 28.4 °F 100% 30.32 in 1.8 mi Calm Calm - N/A   Clear
3:53 AM 28.9 °F - 28.0 °F 96% 30.34 in 1.5 mi Calm Calm - N/A   Clear
3:59 AM 28.9 °F - 28.0 °F 96% 30.32 in 3.0 mi Calm Calm - N/A   Clear
4:53 AM 32.0 °F - 30.0 °F 92% 30.32 in 10.0 mi Calm Calm - N/A   Overcast
5:53 AM 35.1 °F - 34.0 °F 96% 30.31 in 10.0 mi Calm Calm - N/A   Overcast
6:53 AM 37.9 °F - 37.0 °F 97% 30.29 in 10.0 mi Calm Calm - N/A   Overcast
7:53 AM 39.9 °F - 37.9 °F 93% 30.28 in 10.0 mi Calm Calm - N/A   Overcast
8:53 AM 45.0 °F - 41.0 °F 86% 30.29 in 10.0 mi Calm Calm - N/A   Overcast
9:53 AM 48.9 °F - 44.1 °F 83% 30.28 in 10.0 mi South 4.6 mph - N/A   Overcast
10:53 AM 48.0 °F - 44.1 °F 86% 30.28 in 10.0 mi ESE 3.5 mph - N/A   Overcast
11:53 AM 50.0 °F - 45.0 °F 83% 30.26 in 10.0 mi Calm Calm - N/A   Overcast
12:53 PM 53.1 °F - 46.9 °F 80% 30.24 in 10.0 mi Calm Calm - N/A   Overcast
1:10 PM 54.0 °F - 48.0 °F 80% 30.21 in 10.0 mi Calm Calm - N/A   Overcast
1:53 PM 57.0 °F - 51.1 °F 81% 30.21 in 4.0 mi South 6.9 mph - N/A   Haze
2:05 PM 57.9 °F - 51.1 °F 78% 30.19 in 7.0 mi SSW 9.2 mph - N/A   Overcast
2:34 PM 57.9 °F - 52.0 °F 81% 30.17 in 10.0 mi SSW 8.1 mph - N/A   Overcast
2:53 PM 59.0 °F - 53.1 °F 81% 30.18 in 10.0 mi SSW 11.5 mph - N/A   Overcast
3:53 PM 59.0 °F - 54.0 °F 83% 30.17 in 10.0 mi SSW 11.5 mph 17.3 mph N/A   Overcast
4:53 PM 60.1 °F - 55.0 °F 83% 30.17 in 10.0 mi SSW 10.4 mph 18.4 mph N/A   Overcast
5:42 PM 60.1 °F - 55.0 °F 83% 30.15 in 10.0 mi SSW 9.2 mph 17.3 mph N/A   Overcast
5:53 PM 60.1 °F - 55.9 °F 86% 30.17 in 10.0 mi South 9.2 mph - N/A   Overcast
6:53 PM 60.1 °F - 57.0 °F 90% 30.15 in 10.0 mi South 6.9 mph - 0.00 in   Overcast
7:18 PM 60.1 °F - 57.0 °F 90% 30.14 in 10.0 mi SSW 8.1 mph - N/A   Overcast
7:53 PM 60.1 °F - 57.9 °F 93% 30.14 in 10.0 mi SSW 9.2 mph - N/A   Overcast
8:53 PM 61.0 °F - 57.9 °F 90% 30.16 in 10.0 mi SW 6.9 mph - N/A   Overcast
9:53 PM 61.0 °F - 57.9 °F 90% 30.16 in 10.0 mi SSW 9.2 mph - N/A   Overcast
10:53 PM 61.0 °F - 59.0 °F 93% 30.15 in 10.0 mi SW 4.6 mph - N/A   Overcast
11:00 PM 61.0 °F - 59.0 °F 93% 30.14 in 10.0 mi SW 5.8 mph - N/A   Overcast
11:10 PM 61.0 °F - 59.0 °F 93% 30.14 in 10.0 mi SW 5.8 mph - N/A   Overcast
11:17 PM 61.0 °F - 59.0 °F 93% 30.15 in 10.0 mi SW 5.8 mph - N/A   Overcast
11:53 PM 61.0 °F - 59.0 °F 93% 30.14 in 10.0 mi SSW 4.6 mph - N/A   Overcast